OneWeb SL0192

operational
NORAD ID: 48222 Int'l Des: 2021-031 Owner: ONEWEBN Country: UK Constellation: oneweb
LEOCIRCULARPOLARONEWEB_TYPE

About OneWeb SL0192

Description loading...

Live Position

Loading 3D Globe...

Upcoming Passes

Altitude History

Altitude vs Time

uPlot chart will show altitude changes over time

Two-Line Element Set

1 48222U 21031N 25303.13994618 -.00000008 00000-0 -56272-4 0 9995
2 48222 87.9005 335.5544 0001952 95.5257 264.6096 13.14503372217954
Epoch: Oct 30, 2025 • Age: 21 hours

Current Status

Altitude 1234.0 km
Velocity 7.24 km/s
Sub-Earth Point -72.60°S, 111.46°E
Launch Date Apr 25, 2021
Age 4.5 years
Type internet

Technical Details

Classification Payload
Mass 148.00 kg
Dry Mass 140.00 kg
Total Mass 148.00 kg
Length 1.30 m
Diameter 1.00 m
Span 5.00 m
Shape Trapezoid+2 pan
Manufacturer ONEWUS
Bus Type ARROW
Phase Status In Orbit
Owner/State ONEWEBN/UK

Large Constellations

Loading constellations...